Indianapolis Mount Comfort, IN

4:55 AM EST on December 15, 2019 (GMT -0500)
Mount Comfort

Weather History for KMQJ - May, 2019

Change the Weather History Date:

Tuesday, May 14, 2019

  Actual Average (KEYE) Record (KEYE)
Temperature  
Mean Temperature 52 °F -  
Max Temperature 68 °F 69 °F 89 °F (2018)
Min Temperature 35 °F 51 °F 41 °F (2016)
Degree Days  
Heating Degree Days 14    
Growing Degree Days 2 (Base 50)    
Moisture  
Dew Point 45 °F    
Average Humidity 77    
Maximum Humidity 100    
Minimum Humidity 46    
Precipitation  
Precipitation 0.00 in - - ()
Sea Level Pressure  
Sea Level Pressure 30.03 in    
Wind  
Wind Speed 2 mph (WNW)    
Max Wind Speed 12 mph    
Max Gust Speed -    
Visibility 8 miles    
Events      
Averages and records for this station are not official NWS values.
T = Trace of Precipitation, MM = Missing Value Source: NWS Daily Summary

Daily Weather History Graph

Daily Weather History Graph

Search for Another Location

Airport or City:

Astronomy

May. 14, 2019 Rise Set
Actual Time 6:29 AM EDT 8:50 PM EDT
Civil Twilight 5:59 AM EDT 9:21 PM EDT
Nautical Twilight 5:21 AM EDT 9:58 PM EDT
Astronomical Twilight 4:40 AM EDT 10:40 PM EDT
Moon 4:11 PM EDT (5/14) 4:21 AM EDT (5/14)
Length of Visible Light 15h 21m
Length of Day
14h 20m
Waxing Gibbous, 79% of the Moon is Illuminated
May 14
Waxing Gibbous
May 18
Full
May 26
Last Quarter
Jun 3
New
Jun 10
First Quarter

Hourly Weather History & Observations

Time (EDT) Temp. Windchill Dew Point Humidity Pressure Visibility Wind Dir Wind Speed Gust Speed Precip Events Conditions
12:15 AM 42.8 °F - 42.8 °F 100% 30.01 in 10.0 mi Calm Calm - N/A   Scattered Clouds
12:35 AM 42.8 °F - 42.8 °F 100% 30.01 in 10.0 mi Calm Calm - N/A   Scattered Clouds
12:56 AM 42.8 °F - 42.8 °F 100% 30.01 in 7.0 mi Calm Calm - N/A   Mostly Cloudy
1:15 AM 42.8 °F - 42.8 °F 100% 30.01 in 5.0 mi Calm Calm - N/A   Scattered Clouds
1:35 AM 41.0 °F - 41.0 °F 100% 30.01 in 7.0 mi Calm Calm - N/A   Scattered Clouds
1:55 AM 39.2 °F 37.0 °F 39.2 °F 100% 30.01 in 5.0 mi WSW 3.5 mph - N/A   Clear
2:15 AM 39.2 °F - 39.2 °F 100% 30.00 in 1.8 mi Calm Calm - N/A   Unknown
2:35 AM 39.2 °F 37.0 °F 39.2 °F 100% 30.00 in 0.8 mi West 3.5 mph - N/A   Unknown
2:55 AM 39.2 °F - 39.2 °F 100% 30.00 in 0.8 mi Calm Calm - N/A   Unknown
3:15 AM 41.0 °F - 41.0 °F 100% 30.00 in 7.0 mi Calm Calm - N/A   Clear
3:35 AM 39.2 °F - 39.2 °F 100% 30.00 in 4.0 mi Calm Calm - N/A   Clear
3:55 AM 39.2 °F - 39.2 °F 100% 30.00 in 4.0 mi Calm Calm - N/A   Clear
4:16 AM 39.2 °F - 39.2 °F 100% 30.01 in 1.2 mi Calm Calm - N/A   Unknown
4:35 AM 37.4 °F - 37.4 °F 100% 30.01 in 4.0 mi Calm Calm - N/A   Clear
4:55 AM 37.4 °F - 37.4 °F 100% 30.01 in 4.0 mi Calm Calm - N/A   Clear
5:15 AM 39.2 °F 37.0 °F 39.2 °F 100% 30.01 in 3.0 mi East 3.5 mph - N/A   Clear
5:35 AM 37.4 °F - 37.4 °F 100% 30.02 in 3.0 mi Calm Calm - N/A   Clear
5:55 AM 35.6 °F - 35.6 °F 100% 30.02 in 2.5 mi Calm Calm - N/A   Clear
6:15 AM 35.6 °F - 35.6 °F 100% 30.03 in 0.8 mi Calm Calm - N/A   Unknown
6:35 AM 37.4 °F - 37.4 °F 100% 30.04 in 0.8 mi Calm Calm - N/A   Unknown
6:55 AM 35.6 °F - 35.6 °F 100% 30.04 in 0.2 mi Calm Calm - N/A   Unknown
7:15 AM 37.4 °F - 37.4 °F 100% 30.04 in 0.2 mi Calm Calm - N/A   Unknown
7:35 AM 39.2 °F - 39.2 °F 100% 30.05 in 4.0 mi Calm Calm - N/A   Clear
7:55 AM 42.8 °F - 42.8 °F 100% 30.06 in 3.0 mi Calm Calm - N/A   Clear
8:15 AM 44.6 °F - 44.6 °F 100% 30.07 in 5.0 mi Calm Calm - N/A   Clear
8:35 AM 46.4 °F - 46.4 °F 100% 30.07 in 7.0 mi Calm Calm - N/A   Clear
8:55 AM 50.0 °F - 48.2 °F 94% 30.07 in 10.0 mi Calm Calm - N/A   Clear
9:15 AM 51.8 °F - 48.2 °F 88% 30.07 in 10.0 mi Calm Calm - N/A   Clear
9:35 AM 53.6 °F - 46.4 °F 77% 30.07 in 10.0 mi Calm Calm - N/A   Clear
9:55 AM 55.4 °F - 46.4 °F 72% 30.08 in 10.0 mi Calm Calm - N/A   Clear
10:15 AM 55.4 °F - 44.6 °F 67% 30.08 in 10.0 mi Calm Calm - N/A   Clear
10:35 AM 57.2 °F - 46.4 °F 67% 30.08 in 10.0 mi Calm Calm - N/A   Clear
10:55 AM 59.0 °F - 46.4 °F 63% 30.08 in 10.0 mi Calm Calm - N/A   Clear
11:16 AM 59.0 °F - 46.4 °F 63% 30.08 in 10.0 mi Calm Calm - N/A   Clear
11:35 AM 60.8 °F - 46.4 °F 59% 30.08 in 10.0 mi Calm Calm - N/A   Clear
11:55 AM 60.8 °F - 46.4 °F 59% 30.08 in 10.0 mi ESE 3.5 mph - N/A   Clear
12:15 PM 62.6 °F - 46.4 °F 55% 30.07 in 10.0 mi NNE 4.6 mph - N/A   Clear
12:35 PM 62.6 °F - 46.4 °F 55% 30.07 in 10.0 mi ESE 3.5 mph - N/A   Clear
12:55 PM 62.6 °F - 46.4 °F 55% 30.07 in 10.0 mi SSW 4.6 mph - N/A   Clear
1:15 PM 62.6 °F - 48.2 °F 59% 30.07 in 10.0 mi West 6.9 mph - N/A   Clear
1:35 PM 64.4 °F - 48.2 °F 56% 30.06 in 10.0 mi NW 6.9 mph - N/A   Scattered Clouds
1:55 PM 64.4 °F - 46.4 °F 52% 30.06 in 10.0 mi NNW 5.8 mph - N/A   Mostly Cloudy
2:15 PM 64.4 °F - 44.6 °F 49% 30.06 in 10.0 mi NNW 5.8 mph - N/A   Scattered Clouds
2:35 PM 64.4 °F - 46.4 °F 52% 30.05 in 10.0 mi NNW 6.9 mph - N/A   Scattered Clouds
2:55 PM 64.4 °F - 44.6 °F 49% 30.05 in 10.0 mi South 3.5 mph - N/A   Mostly Cloudy
3:15 PM 66.2 °F - 48.2 °F 52% 30.04 in 10.0 mi SW 3.5 mph - N/A   Scattered Clouds
3:35 PM 66.2 °F - 46.4 °F 49% 30.03 in 10.0 mi WSW 8.1 mph - N/A   Mostly Cloudy
3:55 PM 66.2 °F - 44.6 °F 46% 30.02 in 10.0 mi WNW 3.5 mph - N/A   Mostly Cloudy
4:15 PM 66.2 °F - 48.2 °F 52% 30.02 in 10.0 mi West 3.5 mph - N/A   Scattered Clouds
4:35 PM 66.2 °F - 46.4 °F 49% 30.01 in 10.0 mi WSW 3.5 mph - N/A   Mostly Cloudy
4:55 PM 66.2 °F - 48.2 °F 52% 30.01 in 10.0 mi WNW 5.8 mph - N/A   Mostly Cloudy
5:15 PM 64.4 °F - 48.2 °F 56% 30.01 in 10.0 mi West 5.8 mph - N/A   Scattered Clouds
5:36 PM 68.0 °F - 48.2 °F 49% 30.01 in 10.0 mi West 10.4 mph - N/A   Scattered Clouds
5:55 PM 68.0 °F - 48.2 °F 49% 30.00 in 10.0 mi NNW 4.6 mph - N/A   Scattered Clouds
6:15 PM 64.4 °F - 48.2 °F 56% 30.00 in 10.0 mi WNW 6.9 mph - N/A   Scattered Clouds
6:35 PM 66.2 °F - 46.4 °F 49% 30.00 in 10.0 mi West 9.2 mph - N/A   Scattered Clouds
6:55 PM 66.2 °F - 46.4 °F 49% 30.00 in 10.0 mi WNW 11.5 mph - N/A   Clear
7:15 PM 66.2 °F - 46.4 °F 49% 30.00 in 10.0 mi West 9.2 mph - N/A   Scattered Clouds
7:35 PM 66.2 °F - 46.4 °F 49% 30.00 in 10.0 mi NW 11.5 mph - N/A   Scattered Clouds
7:55 PM 64.4 °F - 48.2 °F 56% 30.00 in 10.0 mi West 6.9 mph - N/A   Scattered Clouds
8:16 PM 62.6 °F - 48.2 °F 59% 30.00 in 10.0 mi WNW 4.6 mph - N/A   Clear
8:35 PM 60.8 °F - 46.4 °F 59% 30.01 in 10.0 mi WNW 5.8 mph - N/A   Scattered Clouds
8:55 PM 60.8 °F - 46.4 °F 59% 30.01 in 10.0 mi NW 3.5 mph - N/A   Clear
9:15 PM 55.4 °F - 48.2 °F 77% 30.01 in 10.0 mi Calm Calm - N/A   Clear
9:35 PM 55.4 °F - 46.4 °F 72% 30.01 in 10.0 mi Calm Calm - N/A   Clear
9:55 PM 51.8 °F - 50.0 °F 94% 30.02 in 10.0 mi Calm Calm - N/A   Clear
10:15 PM 51.8 °F - 50.0 °F 94% 30.02 in 10.0 mi Calm Calm - N/A   Clear
10:35 PM 51.8 °F - 50.0 °F 94% 30.03 in 10.0 mi Calm Calm - N/A   Clear
10:55 PM 50.0 °F - 50.0 °F 100% 30.03 in 10.0 mi Calm Calm - N/A   Clear
11:15 PM 50.0 °F - 48.2 °F 94% 30.03 in 10.0 mi Calm Calm - N/A   Clear
11:35 PM 50.0 °F - 48.2 °F 94% 30.03 in 10.0 mi NE 3.5 mph - N/A   Clear
11:55 PM 48.2 °F - 48.2 °F 100% 30.03 in 10.0 mi Calm Calm - N/A   Clear